FW1308 Weather Reports


time (UTC)temp
C
wind
direction
speed
KPH
gust
KPH
rain 1hr
cm
rain 24hr
cm
rain mn
cm
humidity
%
barometer
mb
20260507133011 15 161 4.8 8.0 0.00 0.00 0.00 52 1016.2
20260507131514 15 109 3.2 11.3 0.00 0.00 0.00 52 1016.3
20260507130010 15 166 0.0 9.7 0.00 0.00 0.00 55 1016.4
20260507124510 16 3 0.0 9.7 0.00 0.00 0.00 51 1016.5
20260507123007 16 188 4.8 17.7 0.00 0.00 0.00 52 1016.5
20260507121507 16 172 1.6 9.7 0.00 0.00 0.00 55 1016.5
20260507120009 16 126 3.2 9.7 0.00 0.00 0.00 56 1016.7
20260507114501 15 6 3.2 12.9 0.00 0.00 0.00 59 1016.8
20260507113102 15 330 4.8 9.7 0.00 0.00 0.00 57 1016.8
20260507111607 15 186 3.2 11.3 0.00 0.00 0.00 61 1016.9
20260507110109 15 213 3.2 9.7 0.00 0.00 0.00 60 1016.9
20260507104554 14 133 1.6 8.0 0.00 0.00 0.00 63 1017.0
20260507103052 14 194 3.2 11.3 0.00 0.00 0.00 64 1017.0
20260507101557 13 331 1.6 9.7 0.00 0.00 0.00 66 1017.1
20260507100048 13 49 3.2 14.5 0.00 0.00 0.00 67 1017.1
20260507094547 13 167 4.8 11.3 0.00 0.00 0.00 66 1017.2
20260507093049 12 201 1.6 14.5 0.00 0.00 0.00 70 1017.1
20260507091538 12 233 0.0 9.7 0.00 0.00 0.00 70 1017.2
20260507090038 11 230 0.0 12.9 0.00 0.00 0.00 73 1017.3
20260507084535 11 171 3.2 8.0 0.00 0.00 0.00 74 1017.4
20260507083034 11 210 6.4 12.9 0.00 0.00 0.00 73 1017.3
20260507081542 11 191 0.0 8.0 0.00 0.00 0.00 74 1017.2
20260507080030 11 12 0.0 8.0 0.00 0.00 0.00 75 1017.3
20260507074545 11 165 0.0 0.0 0.00 0.00 0.00 76 1017.2
20260507073027 10 27 0.0 0.0 0.00 0.00 0.00 77 1017.2
20260507071507 10 33 0.0 0.0 0.00 0.00 0.00 78 1017.2
20260507070005 10 124 0.0 0.0 0.00 0.00 0.00 78 1017.2
20260507064600 9 221 0.0 0.0 0.00 0.00 0.00 81 1017.2
20260507063058 8 94 0.0 0.0 0.00 0.00 0.00 82 1017.1
20260507061554 7 91 0.0 0.0 0.00 0.00 0.00 86 1017.1
20260507060051 7 206 0.0 0.0 0.00 0.00 0.00 88 1017.0
20260507054618 6 259 0.0 0.0 0.00 0.00 0.00 91 1016.9
20260507053051 5 143 0.0 0.0 0.00 0.00 0.00 92 1016.9
20260507051546 4 141 0.0 0.0 0.00 0.00 0.00 92 1016.9
20260507050052 4 141 0.0 0.0 0.00 0.00 0.00 92 1016.9
20260507044549 4 141 0.0 0.0 0.00 0.00 0.00 92 1016.9
20260507043045 4 32 0.0 0.0 0.00 0.00 0.00 91 1016.9
20260507041545 5 32 0.0 0.0 0.00 0.00 0.00 91 1016.8
20260507040044 5 32 0.0 0.0 0.00 0.00 0.00 90 1016.7
20260507034546 5 247 0.0 0.0 0.00 0.00 0.00 90 1016.7
20260507033042 5 247 0.0 0.0 0.00 0.00 0.00 90 1016.6
20260507031546 5 247 0.0 0.0 0.00 0.00 0.00 90 1016.7
20260507030048 5 247 0.0 0.0 0.00 0.00 0.00 90 1016.6
20260507024542 5 244 0.0 0.0 0.00 0.00 0.00 90 1016.7
20260507023034 5 245 0.0 0.0 0.00 0.00 0.00 90 1016.7
20260507021535 5 245 0.0 0.0 0.00 0.00 0.00 89 1016.7
20260507020033 6 245 0.0 0.0 0.00 0.00 0.00 89 1016.8
20260507014544 6 245 0.0 0.0 0.00 0.00 0.00 89 1016.8
20260507013030 6 245 0.0 0.0 0.00 0.00 0.00 89 1016.9
20260507011532 6 261 0.0 0.0 0.00 0.00 0.00 89 1016.9
20260507010033 6 261 0.0 0.0 0.00 0.00 0.00 89 1016.9
20260507004528 6 243 0.0 0.0 0.00 0.00 0.00 89 1016.9
20260507003026 5 161 0.0 0.0 0.00 0.00 0.00 89 1016.9
20260507001527 5 161 0.0 0.0 0.00 0.00 0.00 89 1017.1
20260507000032 5 160 0.0 0.0 0.00 0.00 0.00 90 1017.2
20260506234521 5 261 0.0 0.0 0.00 0.00 0.00 90 1017.3
20260506233018 5 269 0.0 0.0 0.00 0.00 0.00 91 1017.2
20260506231515 4 267 0.0 0.0 0.00 0.00 0.00 90 1017.3
20260506230014 4 32 0.0 0.0 0.00 0.00 0.00 89 1017.3
20260506224512 5 32 0.0 0.0 0.00 0.00 0.00 88 1017.3
20260506223007 5 32 0.0 0.0 0.00 0.00 0.00 87 1017.1
20260506221506 6 32 0.0 0.0 0.00 0.00 0.00 87 1016.9
20260506220015 6 41 0.0 0.0 0.00 0.00 0.00 87 1016.8
20260506214502 6 9 0.0 4.8 0.00 0.00 0.00 86 1016.8
20260506213001 6 343 0.0 4.8 0.00 0.00 0.00 86 1016.7
20260506211600 6 357 0.0 4.8 0.00 0.00 0.00 85 1016.7
20260506210059 6 55 1.6 6.4 0.00 0.00 0.00 84 1016.5
20260506204558 7 30 1.6 6.4 0.00 0.00 0.00 83 1016.5
20260506203057 7 37 0.0 8.0 0.00 0.00 0.00 83 1016.6
20260506201556 7 56 1.6 4.8 0.00 0.00 0.00 81 1016.4
20260506200055 7 15 1.6 8.0 0.00 0.00 0.00 81 1016.3
20260506194616 7 30 0.0 6.4 0.00 0.00 0.00 80 1016.1
20260506193103 8 17 1.6 12.9 0.00 0.00 0.00 80 1015.8
20260506191552 8 43 1.6 8.0 0.00 0.00 0.00 80 1015.9
20260506190052 8 44 3.2 0.0 0.00 0.00 0.00 80 1016.0
20260506184551 8 8 3.2 11.3 0.00 0.00 0.00 79 1016.0
20260506183050 8 32 1.6 9.7 0.00 0.00 0.00 80 1016.0
20260506181548 8 34 3.2 12.9 0.00 0.00 0.00 80 1015.9
20260506180100 9 42 4.8 12.9 0.00 0.00 0.00 79 1015.8
20260506174549 9 13 0.0 8.0 0.00 0.00 0.00 79 1015.7
20260506173051 9 86 1.6 9.7 0.00 0.00 0.00 78 1015.7
20260506171550 9 2 3.2 11.3 0.00 0.00 0.00 77 1015.7
20260506170058 10 38 0.0 4.8 0.00 0.00 0.00 76 1015.6
20260506164545 10 45 1.6 9.7 0.00 0.00 0.00 77 1015.6
20260506163104 10 352 3.2 11.3 0.00 0.00 0.00 76 1015.6
20260506161542 10 4 1.6 11.3 0.00 0.00 0.00 76 1015.5
20260506160042 10 41 0.0 9.7 0.00 0.00 0.00 75 1015.6
20260506154602 10 67 4.8 12.9 0.00 0.00 0.00 74 1015.4
20260506153049 10 27 4.8 11.3 0.00 0.00 0.00 73 1015.5
20260506151539 10 49 6.4 16.1 0.00 0.00 0.00 73 1015.4
20260506150038 11 27 4.8 14.5 0.00 0.00 0.00 71 1015.3
20260506144537 11 21 8.0 22.5 0.00 0.00 0.00 68 1015.3
20260506143047 11 192 3.2 12.9 0.00 0.00 0.00 64 1015.2
20260506141538 12 74 3.2 16.1 0.00 0.00 0.00 64 1015.2
20260506140035 12 81 3.2 14.5 0.00 0.00 0.00 65 1015.3
20260506134534 11 279 0.0 12.9 0.00 0.00 0.00 66 1015.3